Regional Weather Roundup
Issued by NWS

Home | Current Version | Previous Version | Text Only | Print | Product List | Glossary On
Versions: 1 2 3 4 5 6 7 8 9 10 11 12 13 14 15 16 17 18 19 20 21 22 23 24 25 26 27
000
ASUS42 KKEY 300510
RWRKEY

FLORIDA REGIONAL WEATHER ROUNDUP FOR THE FLORIDA KEYS
NATIONAL WEATHER SERVICE KEY WEST FLORIDA
100 AM EDT SAT JUL 30 2016

...SOUTH FLORIDA AND THE KEYS...

CITY           SKY/WX    TMP DP  RH WIND       PRES   REMARKS
FORT MYERS     PTCLDY    79  77  94 CALM      30.04F
SW REGIONAL AP PTCLDY    79  76  90 CALM      30.05F
NAPLES         PTCLDY    80  76  87 NE3       30.04F
MIAMI          CLOUDY    82  71  69 CALM      30.05S
WEST KENDALL   MOCLDY    79  74  84 CALM      30.04F
HOMESTEAD      PTCLDY    81  72  72 CALM      30.04F
MARATHON       PTCLDY    83  77  82 CALM      30.04F HX  92
BOCA CHICA NAS CLEAR     83  76  79 CALM      30.04F HX  91
KEY WEST INTL  CLEAR     84  78  82 E3        30.04F HX  95

...INTERNATIONAL WEATHER...

CITY           SKY/WX    TMP DP  RH WIND       PRES   REMARKS
NASSAU BAHAMAS MOCLDY    82  73  74 NE5       30.06F
CANCUN MEXICO  PTCLDY    82  79  89 E6        30.03F HX  93
COZUMEL MEXICO PTCLDY    79  75  89 E8        30.02F

ADJACENT COASTAL WATERS...

STATION/POSITION TIME  SKY/WX   TEMP    WIND        PRES    WAVE
                                AIR SEA DIR/SP/G            HT/PER
                 (UTC)          (F)     (DEG/KT/KT) (MB)    (FT/S)
PULASKI SHOAL LI 0500            85     120/  3/  4 1017.4F
SAND KEY         0450            84     140/  6/  7 1017.7F
LONG KEY         0400            85 89  160/  5/  6 1017.7F
FOWEY ROCKS      0500            84 86  140/  2/  3 1018.0R

$$




USA.gov is the U.S. government's official web portal to all federal, state and local government web resources and services.